View from above orbital plane
|
View from above satellite
|
Ground track
|
The orbit data is extracted from the following two-line orbital elements,
1 28541U 05004C 21059.76322387 0.00000000 00000-0 00000-0 0 07
2 28541 63.4256 337.7512 0390096 358.4511 1.5489 13.40817317 02
Epoch (UTC): | 28 February 2021 18:19:02 |
Eccentricity: | 0.0390096 |
inclination: | 63.4256° |
perigee height: | 814 km |
apogee height: | 1398 km |
right ascension of ascending node: | 337.7512° |
argument of perigee: | 358.4511° |
revolutions per day: | 13.40817317 |
mean anomaly at epoch: | 1.5489° |
orbit number at epoch: | 0 |
The dashed part of the orbit path shows where the satellite is in the earth's shadow,
|
|